Preview of NWS' New Version of Forecast
This preview is not operational and should not be used for support decisions.

Regional Weather Roundup (RWR)

Issued by National Weather Service (NWS)

                            
000
ASUS44 KJAN 230810
RWRMS 

MISSISSIPPI HOURLY WEATHER ROUNDUP
NATIONAL WEATHER SERVICE JACKSON MS
200 AM CST SAT FEB 23 2019

NOTE: "FAIR: INDICATES FEW OR NO CLOUDS BELOW 12,000 FEET WITH NO
SIGNIFICANT WEATHER AND/OR OBSTRUCTIONS TO VISIBILITY.

MSZ001>002-007>008-010>013-018>021-025>028-034>036-230900-
NORTHWEST MISSISSIPPI
  
CITY           SKY/WX    TMP DP  RH WIND       PRES   REMARKS
BATESVILLE     RAIN      59  59 100 VRB7G15   29.95F                  
CLARKSDALE     CLOUDY   N/A N/A N/A E15G22    29.95S FOG              
CLEVELAND      LGT RAIN  58  58 100 NE10      29.93S                  
GREENWOOD      CLOUDY    66  64  93 S12       29.91F                  
GREENVILLE     RAIN     N/A N/A N/A MISG      29.91F                  
OLIVE BRANCH   CLOUDY    55 N/A N/A S7        30.00R FOG              
OXFORD         RAIN      57  57 100 E7G15     29.99F                  
TUNICA         HVY RAIN  55  55 100 E12       29.95F                  
WINONA         CLOUDY    60  60 100 CALM      29.94F FOG              
$$

MSZ003>006-009-014>017-022>024-029>033-037>039-230900-
NORTHEAST MISSISSIPPI
  
CITY           SKY/WX    TMP DP  RH WIND       PRES   REMARKS
ABERDEEN       DRIZZLE   55  55 100 N7        30.02S                  
COLUMBUS AFB   CLOUDY    57  57 100 N7        29.99S FOG              
CORINTH        LGT RAIN  57  55  94 E6        30.01S                  
GOLDN TRIANGLE FOG       59  59 100 CALM      29.99F VSB 1/2          
TUPELO         LGT RAIN  57  55  93 E8        30.00F FOG              
$$

MSZ040-058-230900-
CENTRAL MISSISSIPPI
  
CITY           SKY/WX    TMP DP  RH WIND       PRES   REMARKS
JACKSON INTL   CLOUDY    71  68  90 S8        29.95F                  
JACKSON HAWKNS LGT RAIN  71  70  96 S7        29.95F                  
MADISON        CLOUDY    70  70 100 S6        29.94F                  
MERIDIAN KEY   CLOUDY    73  69  87 S13       29.98F                  
MERIDIAN NAS   CLOUDY    67  67 100 SE3       29.99F FOG              
RAYMOND        FAIR      70  70 100 CALM      29.94S                  
VICKSBURG VKS  CLOUDY    72  72 100 S10       29.93S                  
$$

MSZ059>079-230900-
SOUTH MISSISSIPPI
  
CITY           SKY/WX    TMP DP  RH WIND       PRES   REMARKS
HATTIESBURG    CLOUDY    73  70  90 S10       29.99F                  
LAUREL         PTSUNNY   71  71  99 S8        29.98F                  
MCCOMB         CLOUDY    73  68  84 S14       29.96F                  
NATCHEZ        CLOUDY    71  69  93 S8        29.94S                  
PINE BELT      MOCLDY    71  70  96 S9        29.99F                  
$$

MSZ080>082-230900-
COASTAL MISSISSIPPI
  
CITY           SKY/WX    TMP DP  RH WIND       PRES   REMARKS
BILOXI         CLOUDY    70  70 100 S8        30.01F FOG              
PASCAGOULA     CLOUDY    73  70  90 S8        30.02S FOG              
GULFPORT       FOG       70  70 100 S10       30.00F VSB 1/2          
$$

LAZ007>009-015>016-023>026-230900-
NORTHEAST LOUISIANA
  
CITY           SKY/WX    TMP DP  RH WIND       PRES   REMARKS
BASTROP        CLOUDY    57  57  98 E5        29.92F FOG              
TALLULAH/VBURG FAIR      67  66  97 S5        29.92F FOG              
VIDALIA        CLOUDY    68  68  98 S8        29.92F FOG              
$$